Flag for U.S.A. Weather past 2 weeks in Santa Fe, New Mexico, U.S.A.

Now
54 °F

Sunny.


Feels Like: 49 °F
Forecast: 31 / 57 °F
Wind: 20 mph from North

Location: Santa Fe County Municipal Airport

Current Time: Apr 19, 2015 at 11:45:16 AM

Latest Report: Apr 19, 2015 at 10:53 AM


Visibility: 10 mi

Pressure: 29.93 "Hg

Humidity: 30%

Dew point: 23 °F

Location of Santa FeLocation

Historic Weather in Santa Fe — Graph

°F

Santa Fe temperature yesterday

Maximum temperature yesterday: 53 °F (at 4:53 PM)
Minimum temperature yesterday: 32 °F (at 1:01 AM)
Average temperature yesterday: 40 °F

Past Weeks' High & Low Weather Summary

 TemperatureHumidityPressure
High72 °F (Apr 8, 2:53 PM)96% (Apr 18, 1:01 AM)30.19 "Hg (Apr 18, 1:01 AM)
Low19 °F (Apr 17, 6:53 AM)4% (Apr 6, 4:53 PM)29.50 "Hg (Apr 8, 3:53 PM)
Average50 °F30%29.85 "Hg
* Reported Apr 4 10:53 AM — Apr 19 10:53 AM, Santa Fe, Weather by CustomWeather, © 2015

Note: Actual official high and low records may vary slightly from our data, if they occured in-between our weather recording intervals... More about our weather records

Advertising

Santa Fe weather history for previous 24 hours

 ConditionsComfort  
Time TempWeatherWind HumidityBarometerVisibility
10:53 AM
Sun, Apr 19
54 °FSunny.20 mph30%29.93 "Hg10 mi
9:53 AM51 °FSunny.17 mph35%29.92 "Hg10 mi
8:53 AM49 °FSunny.24 mph39%29.90 "Hg10 mi
7:53 AM43 °FSunny.18 mph56%29.91 "Hg10 mi
6:53 AM38 °FClear.10 mph68%29.91 "Hg10 mi
5:53 AM37 °FClear.10 mph70%29.87 "Hg10 mi
4:53 AM36 °FClear.10 mph70%29.86 "Hg10 mi
3:53 AM36 °FClear.9 mph70%29.87 "Hg10 mi
2:53 AM37 °FClear.10 mph70%29.85 "Hg10 mi
1:53 AM37 °FClear.10 mph70%29.86 "Hg10 mi
12:53 AM41 °FClear.7 mph62%29.85 "Hg10 mi
11:53 PM
Sat, Apr 18
39 °FClear.7 mph67%29.86 "Hg10 mi
10:53 PM42 °FClear.7 mph60%29.86 "Hg10 mi
9:53 PM45 °FOvercast.5 mph58%29.87 "Hg10 mi
8:53 PM48 °FMostly cloudy.12 mph50%29.85 "Hg10 mi
7:53 PM48 °FOvercast.8 mph48%29.85 "Hg10 mi
6:53 PM50 °FOvercast.9 mph43%29.83 "Hg10 mi
5:53 PM51 °FScattered clouds.14 mph36%29.83 "Hg10 mi
4:53 PM53 °FSunny.15 mph26%29.80 "Hg10 mi
3:53 PM52 °FSunny.18 mph30%29.80 "Hg10 mi
2:53 PM51 °FPassing clouds.20 mph44%29.83 "Hg10 mi
2:00 PM48 °FBroken clouds.10 mph54%29.96 "Hg10 mi
12:53 PM45 °FPartly sunny.12 mph65%29.91 "Hg10 mi
12:01 PM42 °FPassing clouds.3 mph65%30.01 "Hg10 mi
11:01 AM37 °FPartly sunny.5 mph82%30.02 "Hg10 mi
Weather by CustomWeather, © 2015

See weather overviewHow to use our weather pages